Benson, United Kingdom

6:09 AM GMT on December 16, 2017 (GMT +0000)
Benson Air Base

Weather History for EGUB - November, 2013

Change the Weather History Date:

Monday, November 25, 2013

  Actual Average Record
Temperature  
Mean Temperature 38 °F -  
Max Temperature 43 °F 45 °F 57 °F (2001)
Min Temperature 32 °F 36 °F 23 °F (2017)
Degree Days  
Heating Degree Days 27    
Moisture  
Dew Point 35 °F    
Average Humidity 83    
Maximum Humidity 93    
Minimum Humidity 67    
Precipitation  
Precipitation 0.01 in - - ()
Sea Level Pressure  
Sea Level Pressure 30.66 in    
Wind  
Wind Speed 4 mph ()    
Max Wind Speed 8 mph    
Max Gust Speed -    
Visibility 7.7 miles    
Events      
Averages and records for this station are not official NWS values.
T = Trace of Precipitation, MM = Missing Value Source: Averaged Metar Reports

Daily Weather History Graph

Daily Weather History Graph

Search for Another Location

Airport or City:

Trip Planner

Search our weather history database for the weather conditions in past years. The results will help you decide how hot, cold, wet, or windy it might be!

Date:

Astronomy

Nov. 25, 2013 Rise Set
Actual Time 7:39 AM GMT 4:02 PM GMT
Civil Twilight 7:00 AM GMT 4:41 PM GMT
Nautical Twilight 6:19 AM GMT 5:23 PM GMT
Astronomical Twilight 5:39 AM GMT 6:03 PM GMT
Moon 11:42 PM GMT (11/25) 12:22 PM GMT (11/25)
Length of Visible Light 9h 40m
Length of Day
8h 23m
Waning Gibbous, 53% of the Moon is Illuminated
Nov 25
Waning Gibbous
Nov 25
Last Quarter
Dec 3
New
Dec 9
First Quarter
Dec 17
Full

Hourly Weather History & Observations

Time (GMT) Temp. Windchill Dew Point Humidity Pressure Visibility Wind Dir Wind Speed Gust Speed Precip Events Conditions
12:00 AM 39 °F - 35 °F 82% 30.61 in 14 mi North 2.3 mph - -   Mostly Cloudy
12:50 AM 37.4 °F - 35.6 °F 93% 30.60 in 6.2 mi North 2.3 mph - N/A   Mostly Cloudy
1:50 AM 39.2 °F 35.0 °F 37.4 °F 93% 30.60 in 6.2 mi NNW 5.8 mph - N/A   Overcast
2:50 AM 39.2 °F 34.2 °F 35.6 °F 87% 30.60 in 6.2 mi NNW 6.9 mph - N/A   Mostly Cloudy
3:00 AM 40 °F - 36 °F 82% 30.62 in 9 mi NNW 6.9 mph - -   Scattered Clouds
3:50 AM 37.4 °F 32.8 °F 35.6 °F 93% 30.60 in 6.2 mi NNE 5.8 mph - N/A   Overcast
4:50 AM 39.2 °F 35.9 °F 35.6 °F 87% 30.60 in 6.2 mi North 4.6 mph - N/A   Mostly Cloudy
5:50 AM 39.2 °F 37.0 °F 35.6 °F 87% 30.63 in 6.2 mi NNW 3.5 mph - N/A   Mostly Cloudy
6:00 AM 39 °F - 36 °F 85% 30.64 in 9 mi NNW 3.5 mph - -   Mostly Cloudy
6:50 AM 37.4 °F - 35.6 °F 93% 30.63 in 6.2 mi NNE 2.3 mph - N/A   Mostly Cloudy
7:50 AM 37.4 °F - 35.6 °F 93% 30.63 in 6.2 mi NNE 2.3 mph - N/A   Mostly Cloudy
8:50 AM 39.2 °F 37.0 °F 35.6 °F 87% 30.66 in 6.2 mi NNW 3.5 mph - N/A   Mostly Cloudy
9:00 AM 39 °F - 36 °F 85% 30.67 in 9 mi NNW 3.5 mph - -   Mostly Cloudy
9:50 AM 41.0 °F 38.0 °F 35.6 °F 81% 30.66 in 6.2 mi NNW 4.6 mph - N/A   Mostly Cloudy
10:50 AM 42.8 °F 38.0 °F 37.4 °F 81% 30.69 in 6.2 mi NW 8.1 mph - N/A   Mostly Cloudy
11:50 AM 42.8 °F 38.6 °F 35.6 °F 76% 30.66 in 6.2 mi NNW 6.9 mph - N/A   Overcast
12:00 PM 43 °F - 36 °F 69% 30.68 in 16 mi NNW 6.9 mph - -   Overcast
12:50 PM 42.8 °F 38.0 °F 35.6 °F 76% 30.66 in 6.2 mi NW 8.1 mph - N/A   Mostly Cloudy
1:50 PM 42.8 °F 38.0 °F 35.6 °F 76% 30.66 in 6.2 mi NW 8.1 mph - N/A   Mostly Cloudy
2:50 PM 42.8 °F 38.6 °F 35.6 °F 76% 30.66 in 6.2 mi NNW 6.9 mph - N/A   Mostly Cloudy
3:00 PM 43 °F - 36 °F 67% 30.67 in 16 mi NNW 6.9 mph - -   Mostly Cloudy
3:50 PM 42.8 °F 39.3 °F 35.6 °F 76% 30.66 in 6.2 mi NW 5.8 mph - N/A   Mostly Cloudy
4:50 PM 41.0 °F 37.1 °F 35.6 °F 81% 30.66 in 6.2 mi NW 5.8 mph - N/A   Mostly Cloudy
5:50 PM 41.0 °F 37.1 °F 35.6 °F 81% 30.69 in 6.2 mi NW 5.8 mph - N/A   Mostly Cloudy
6:00 PM 41 °F - 36 °F 74% 30.71 in 12 mi NW 5.8 mph - -   Mostly Cloudy
6:50 PM 41.0 °F 36.4 °F 35.6 °F 81% 30.69 in 6.2 mi NW 6.9 mph - N/A   Mostly Cloudy
7:50 PM 41.0 °F 37.1 °F 35.6 °F 81% 30.69 in 6.2 mi NNW 5.8 mph - N/A   Mostly Cloudy
8:50 PM 39.2 °F 35.9 °F 35.6 °F 87% 30.69 in 6.2 mi NNW 4.6 mph - N/A   Mostly Cloudy
9:00 PM 39 °F - 35 °F 82% 30.72 in 12 mi NNW 4.6 mph - -   Mostly Cloudy
9:50 PM 37.4 °F 34.9 °F 33.8 °F 87% 30.69 in 6.2 mi North 3.5 mph - N/A   Scattered Clouds
10:50 PM 37.4 °F 33.8 °F 32.0 °F 81% 30.69 in 6.2 mi NW 4.6 mph - N/A   Partly Cloudy
11:50 PM 32.0 °F 28.7 °F 30.2 °F 93% 30.71 in 6.2 mi North 3.5 mph - N/A   Partly Cloudy